| time (UTC) | temp F | wind direction | speed MPH | gust MPH | rain 1hr in | rain 24hr in | rain mn in | humidity % | barometer mb |
| 20260505102004 | 59 | 330 | 4.0 | 13.0 | 0.00 | 0.04 | 0.00 | 81 | 999.8 |
| 20260505101504 | 59 | 348 | 4.0 | 15.0 | 0.00 | 0.04 | 0.00 | 81 | 999.9 |
| 20260505101004 | 59 | 359 | 4.0 | 7.0 | 0.00 | 0.04 | 0.00 | 81 | 999.9 |
| 20260505100504 | 59 | 355 | 4.0 | 16.0 | 0.00 | 0.04 | 0.00 | 81 | 999.9 |
| 20260505100004 | 59 | 339 | 4.0 | 12.0 | 0.00 | 0.04 | 0.00 | 81 | 999.9 |
| 20260505095505 | 59 | 324 | 4.0 | 12.0 | 0.00 | 0.04 | 0.00 | 81 | 999.8 |
| 20260505095025 | 59 | 310 | 5.0 | 16.0 | 0.00 | 0.04 | 0.00 | 81 | 999.7 |
| 20260505094505 | 59 | 295 | 4.0 | 13.0 | 0.00 | 0.04 | 0.00 | 81 | 999.7 |
| 20260505094005 | 59 | 312 | 4.0 | 11.0 | 0.00 | 0.04 | 0.00 | 81 | 999.7 |
| 20260505093525 | 59 | 344 | 3.0 | 11.0 | 0.00 | 0.04 | 0.00 | 80 | 999.6 |
| 20260505093004 | 60 | 356 | 3.0 | 12.0 | 0.00 | 0.04 | 0.00 | 80 | 999.7 |
| 20260505092504 | 60 | 343 | 3.0 | 9.0 | 0.00 | 0.04 | 0.00 | 80 | 999.6 |
| 20260505092026 | 60 | 339 | 3.0 | 9.0 | 0.00 | 0.04 | 0.00 | 80 | 999.3 |
| 20260505091525 | 60 | 332 | 4.0 | 15.0 | 0.00 | 0.04 | 0.00 | 79 | 999.3 |
| 20260505091005 | 60 | 326 | 4.0 | 15.0 | 0.00 | 0.04 | 0.00 | 79 | 999.3 |
| 20260505090504 | 60 | 342 | 3.0 | 12.0 | 0.00 | 0.04 | 0.00 | 79 | 999.1 |
| 20260505090005 | 60 | 352 | 3.0 | 12.0 | 0.00 | 0.04 | 0.00 | 79 | 999.3 |
| 20260505085504 | 60 | 333 | 2.0 | 8.0 | 0.00 | 0.04 | 0.00 | 79 | 999.2 |
| 20260505085005 | 60 | 281 | 3.0 | 13.0 | 0.00 | 0.04 | 0.00 | 79 | 999.1 |
| 20260505084526 | 60 | 279 | 4.0 | 13.0 | 0.00 | 0.04 | 0.00 | 79 | 999.1 |
| 20260505084004 | 60 | 289 | 3.0 | 9.0 | 0.00 | 0.04 | 0.00 | 79 | 998.9 |
| 20260505083525 | 60 | 289 | 3.0 | 9.0 | 0.00 | 0.04 | 0.00 | 79 | 998.9 |
| 20260505083005 | 60 | 298 | 2.0 | 4.0 | 0.00 | 0.04 | 0.00 | 79 | 998.9 |
| 20260505082504 | 61 | 306 | 3.0 | 12.0 | 0.00 | 0.04 | 0.00 | 78 | 998.7 |
| 20260505082025 | 61 | 296 | 2.0 | 7.0 | 0.00 | 0.04 | 0.00 | 78 | 998.6 |
| 20260505081505 | 61 | 297 | 3.0 | 9.0 | 0.00 | 0.04 | 0.00 | 78 | 998.7 |
| 20260505081004 | 61 | 291 | 4.0 | 11.0 | 0.00 | 0.04 | 0.00 | 77 | 998.5 |
| 20260505080504 | 61 | 287 | 5.0 | 11.0 | 0.00 | 0.04 | 0.00 | 78 | 998.4 |
| 20260505080004 | 61 | 305 | 4.0 | 20.0 | 0.00 | 0.04 | 0.00 | 78 | 998.5 |
| 20260505075504 | 61 | 332 | 4.0 | 15.0 | 0.00 | 0.04 | 0.00 | 77 | 998.7 |
| 20260505075004 | 61 | 352 | 4.0 | 9.0 | 0.00 | 0.04 | 0.00 | 77 | 998.5 |
| 20260505074504 | 61 | 354 | 4.0 | 19.0 | 0.00 | 0.04 | 0.00 | 78 | 998.4 |
| 20260505074005 | 61 | 355 | 3.0 | 8.0 | 0.00 | 0.04 | 0.00 | 77 | 998.5 |
| 20260505073504 | 61 | 358 | 3.0 | 15.0 | 0.00 | 0.04 | 0.00 | 77 | 998.5 |
| 20260505073004 | 62 | 341 | 4.0 | 11.0 | 0.00 | 0.04 | 0.00 | 77 | 998.6 |
| 20260505072504 | 62 | 271 | 3.0 | 12.0 | 0.00 | 0.04 | 0.00 | 77 | 998.5 |
| 20260505072004 | 62 | 245 | 2.0 | 7.0 | 0.00 | 0.04 | 0.00 | 75 | 998.4 |
| 20260505071504 | 62 | 290 | 2.0 | 9.0 | 0.00 | 0.04 | 0.00 | 75 | 998.5 |
| 20260505071004 | 62 | 326 | 2.0 | 11.0 | 0.00 | 0.04 | 0.00 | 75 | 998.5 |
| 20260505070504 | 62 | 337 | 3.0 | 9.0 | 0.00 | 0.04 | 0.00 | 74 | 998.6 |
| 20260505070005 | 62 | 296 | 3.0 | 8.0 | 0.00 | 0.04 | 0.00 | 74 | 998.6 |
| 20260505065504 | 62 | 308 | 4.0 | 12.0 | 0.00 | 0.04 | 0.00 | 74 | 998.8 |
| 20260505065004 | 62 | 344 | 4.0 | 15.0 | 0.00 | 0.04 | 0.00 | 74 | 998.6 |
| 20260505064504 | 62 | 347 | 4.0 | 8.0 | 0.00 | 0.04 | 0.00 | 74 | 998.5 |
| 20260505064004 | 62 | 342 | 4.0 | 11.0 | 0.00 | 0.04 | 0.00 | 74 | 998.6 |
| 20260505063504 | 62 | 345 | 4.0 | 13.0 | 0.00 | 0.04 | 0.00 | 75 | 998.8 |
| 20260505063004 | 62 | 347 | 4.0 | 17.0 | 0.00 | 0.04 | 0.00 | 75 | 998.9 |
| 20260505062505 | 62 | 351 | 5.0 | 12.0 | 0.00 | 0.04 | 0.00 | 75 | 999.1 |
| 20260505062004 | 62 | 358 | 4.0 | 15.0 | 0.00 | 0.04 | 0.00 | 77 | 999.1 |
| 20260505061504 | 61 | 360 | 4.0 | 17.0 | 0.00 | 0.04 | 0.00 | 77 | 999.1 |
| 20260505061004 | 61 | 360 | 4.0 | 16.0 | 0.00 | 0.04 | 0.00 | 77 | 999.2 |
| 20260505060504 | 61 | 360 | 4.0 | 13.0 | 0.00 | 0.04 | 0.00 | 77 | 999.3 |
| 20260505060004 | 61 | 359 | 3.0 | 11.0 | 0.00 | 0.04 | 0.00 | 77 | 999.4 |
| 20260505055504 | 61 | 314 | 3.0 | 11.0 | 0.00 | 0.04 | 0.00 | 77 | 999.3 |
| 20260505055026 | 61 | 243 | 4.0 | 9.0 | 0.00 | 0.04 | 0.00 | 78 | 999.4 |
| 20260505054504 | 61 | 284 | 4.0 | 11.0 | 0.00 | 0.04 | 0.00 | 78 | 999.3 |
| 20260505054005 | 60 | 266 | 4.0 | 11.0 | 0.00 | 0.04 | 0.00 | 78 | 999.4 |
| 20260505053525 | 60 | 213 | 4.0 | 12.0 | 0.00 | 0.04 | 0.00 | 78 | 999.5 |
| 20260505053004 | 60 | 201 | 4.0 | 13.0 | 0.00 | 0.04 | 0.00 | 78 | 999.6 |
| 20260505052504 | 60 | 210 | 4.0 | 11.0 | 0.00 | 0.04 | 0.00 | 78 | 999.6 |
| 20260505052004 | 60 | 223 | 4.0 | 11.0 | 0.00 | 0.04 | 0.00 | 78 | 999.7 |
| 20260505051504 | 61 | 279 | 4.0 | 12.0 | 0.00 | 0.04 | 0.00 | 78 | 999.6 |
| 20260505051004 | 61 | 354 | 5.0 | 13.0 | 0.00 | 0.04 | 0.00 | 78 | 999.6 |
| 20260505050504 | 61 | 360 | 5.0 | 12.0 | 0.00 | 0.04 | 0.00 | 78 | 999.7 |
| 20260505041504 | 61 | 359 | 3.0 | 8.0 | 0.00 | 0.04 | 0.00 | 79 | 999.8 |
| 20260505041025 | 61 | 360 | 4.0 | 11.0 | 0.00 | 0.04 | 0.00 | 78 | 999.8 |
| 20260505040504 | 61 | 360 | 4.0 | 12.0 | 0.00 | 0.04 | 0.00 | 78 | 999.8 |
| 20260505040005 | 61 | 358 | 2.0 | 7.0 | 0.00 | 0.04 | 0.00 | 77 | 999.8 |
| 20260505035504 | 61 | 353 | 3.0 | 7.0 | 0.00 | 0.04 | 0.04 | 77 | 999.9 |
| 20260505035004 | 62 | 356 | 3.0 | 11.0 | 0.00 | 0.04 | 0.04 | 77 | 999.9 |
| 20260505034504 | 62 | 360 | 2.0 | 7.0 | 0.00 | 0.04 | 0.04 | 75 | 1000.0 |
| 20260505034004 | 62 | 360 | 1.0 | 5.0 | 0.00 | 0.04 | 0.04 | 75 | 1000.1 |
| 20260505033504 | 62 | 360 | 1.0 | 7.0 | 0.00 | 0.04 | 0.04 | 75 | 1000.0 |
| 20260505033004 | 62 | 360 | 1.0 | 5.0 | 0.00 | 0.04 | 0.04 | 74 | 1000.1 |
| 20260505032504 | 62 | 360 | 2.0 | 8.0 | 0.00 | 0.04 | 0.04 | 74 | 1000.2 |
| 20260505032004 | 62 | 360 | 2.0 | 4.0 | 0.00 | 0.04 | 0.04 | 74 | 1000.2 |
| 20260505031504 | 62 | 360 | 3.0 | 8.0 | 0.00 | 0.04 | 0.04 | 74 | 1000.2 |
| 20260505031004 | 62 | 360 | 4.0 | 13.0 | 0.00 | 0.04 | 0.04 | 74 | 1000.3 |
| 20260505030504 | 62 | 360 | 4.0 | 15.0 | 0.00 | 0.04 | 0.04 | 73 | 1000.4 |
| 20260505030004 | 62 | 360 | 5.0 | 15.0 | 0.02 | 0.04 | 0.04 | 74 | 1000.7 |
| 20260505025505 | 62 | 360 | 5.0 | 15.0 | 0.02 | 0.04 | 0.04 | 74 | 1000.6 |
| 20260505025004 | 62 | 360 | 4.0 | 16.0 | 0.02 | 0.04 | 0.04 | 74 | 1000.7 |
| 20260505024504 | 62 | 360 | 4.0 | 19.0 | 0.02 | 0.04 | 0.04 | 75 | 1000.8 |
| 20260505024004 | 61 | 360 | 4.0 | 16.0 | 0.03 | 0.04 | 0.04 | 77 | 1000.6 |
| 20260505023504 | 61 | 360 | 3.0 | 13.0 | 0.04 | 0.04 | 0.04 | 79 | 1000.5 |
| 20260505023005 | 61 | 360 | 4.0 | 13.0 | 0.04 | 0.04 | 0.04 | 79 | 1000.7 |
| 20260505022504 | 61 | 360 | 2.0 | 13.0 | 0.04 | 0.04 | 0.04 | 80 | 1000.7 |
| 20260505022005 | 61 | 360 | 1.0 | 7.0 | 0.04 | 0.04 | 0.04 | 81 | 1000.8 |
| 20260505021504 | 62 | 360 | 3.0 | 4.0 | 0.04 | 0.04 | 0.04 | 81 | 1000.9 |
| 20260505021004 | 62 | 360 | 4.0 | 11.0 | 0.04 | 0.04 | 0.04 | 80 | 1000.9 |
| 20260505020504 | 62 | 360 | 5.0 | 11.0 | 0.04 | 0.04 | 0.04 | 80 | 1000.9 |
| 20260505020004 | 62 | 360 | 5.0 | 13.0 | 0.02 | 0.02 | 0.02 | 79 | 1000.9 |
| 20260505015504 | 62 | 360 | 4.0 | 13.0 | 0.02 | 0.02 | 0.02 | 78 | 1000.8 |
| 20260505015004 | 62 | 360 | 3.0 | 11.0 | 0.02 | 0.02 | 0.02 | 78 | 1000.8 |
| 20260505014504 | 62 | 360 | 3.0 | 7.0 | 0.02 | 0.02 | 0.02 | 77 | 1000.7 |
| 20260505014025 | 62 | 360 | 3.0 | 12.0 | 0.01 | 0.01 | 0.02 | 75 | 1000.5 |
| 20260505013504 | 62 | 360 | 4.0 | 12.0 | 0.00 | 0.00 | 0.00 | 74 | 1000.3 |
| 20260505013004 | 62 | 360 | 5.0 | 12.0 | 0.00 | 0.00 | 0.00 | 74 | 1000.2 |
| 20260505012504 | 62 | 360 | 6.0 | 13.0 | 0.00 | 0.00 | 0.00 | 73 | 999.7 |
| 20260505012004 | 62 | 360 | 7.0 | 13.0 | 0.00 | 0.00 | 0.00 | 73 | 999.5 |
| 20260505011504 | 63 | 360 | 9.0 | 20.0 | 0.00 | 0.00 | 0.00 | 72 | 999.6 |
| 20260505011005 | 63 | 347 | 8.0 | 17.0 | 0.00 | 0.00 | 0.00 | 72 | 999.5 |
| 20260505010504 | 64 | 237 | 7.0 | 15.0 | 0.00 | 0.00 | 0.00 | 71 | 999.5 |
| 20260505010004 | 64 | 213 | 7.0 | 12.0 | 0.00 | 0.00 | 0.00 | 70 | 999.4 |
| 20260505005504 | 64 | 215 | 7.0 | 15.0 | 0.00 | 0.00 | 0.00 | 70 | 999.4 |
| 20260505005005 | 65 | 215 | 7.0 | 13.0 | 0.00 | 0.00 | 0.00 | 70 | 999.4 |
| 20260505004504 | 66 | 216 | 7.0 | 17.0 | 0.00 | 0.00 | 0.00 | 70 | 999.3 |
| 20260505004005 | 66 | 209 | 6.0 | 12.0 | 0.00 | 0.00 | 0.00 | 70 | 999.3 |
| 20260505003504 | 67 | 214 | 7.0 | 11.0 | 0.00 | 0.00 | 0.00 | 69 | 999.4 |
| 20260505003004 | 67 | 222 | 7.0 | 15.0 | 0.00 | 0.00 | 0.00 | 69 | 999.4 |
| 20260505002505 | 67 | 219 | 6.0 | 11.0 | 0.00 | 0.00 | 0.00 | 68 | 999.4 |
| 20260505002004 | 68 | 217 | 6.0 | 11.0 | 0.00 | 0.00 | 0.00 | 68 | 999.5 |
| 20260505001504 | 68 | 216 | 7.0 | 11.0 | 0.00 | 0.00 | 0.00 | 67 | 999.4 |
| 20260505001004 | 68 | 219 | 7.0 | 15.0 | 0.00 | 0.00 | 0.00 | 67 | 999.4 |
| 20260505000525 | 68 | 218 | 6.0 | 12.0 | 0.00 | 0.00 | 0.00 | 66 | 999.5 |
| 20260505000004 | 68 | 215 | 5.0 | 11.0 | 0.00 | 0.00 | 0.00 | 66 | 999.5 |
| 20260504235504 | 69 | 218 | 6.0 | 12.0 | 0.00 | 0.00 | 0.00 | 66 | 999.5 |
| 20260504235005 | 69 | 211 | 5.0 | 17.0 | 0.00 | 0.00 | 0.00 | 64 | 999.5 |
| 20260504234505 | 69 | 208 | 7.0 | 13.0 | 0.00 | 0.00 | 0.00 | 64 | 999.5 |
| 20260504234004 | 69 | 216 | 7.0 | 16.0 | 0.00 | 0.00 | 0.00 | 63 | 999.4 |
| 20260504233504 | 69 | 213 | 5.0 | 11.0 | 0.00 | 0.00 | 0.00 | 63 | 999.4 |
| 20260504233025 | 70 | 202 | 5.0 | 16.0 | 0.00 | 0.00 | 0.00 | 63 | 999.5 |
| 20260504232504 | 70 | 214 | 4.0 | 12.0 | 0.00 | 0.00 | 0.00 | 62 | 999.6 |
| 20260504232004 | 70 | 209 | 5.0 | 12.0 | 0.00 | 0.00 | 0.00 | 62 | 999.7 |
| 20260504231504 | 70 | 208 | 5.0 | 12.0 | 0.00 | 0.00 | 0.00 | 61 | 999.7 |
| 20260504231004 | 71 | 233 | 5.0 | 12.0 | 0.00 | 0.00 | 0.00 | 61 | 999.8 |
| 20260504230504 | 71 | 241 | 5.0 | 16.0 | 0.00 | 0.00 | 0.00 | 60 | 999.8 |
| 20260504230004 | 71 | 251 | 5.0 | 13.0 | 0.00 | 0.00 | 0.00 | 60 | 999.9 |
| 20260504225525 | 71 | 240 | 5.0 | 13.0 | 0.00 | 0.00 | 0.00 | 60 | 1000.0 |
| 20260504225004 | 71 | 229 | 5.0 | 13.0 | 0.00 | 0.00 | 0.00 | 60 | 1000.1 |
| 20260504224504 | 71 | 240 | 6.0 | 15.0 | 0.00 | 0.00 | 0.00 | 59 | 1000.1 |
| 20260504224004 | 71 | 220 | 8.0 | 16.0 | 0.00 | 0.00 | 0.00 | 59 | 1000.2 |
| 20260504223504 | 71 | 213 | 7.0 | 21.0 | 0.00 | 0.00 | 0.00 | 59 | 1000.4 |
| 20260504223026 | 72 | 213 | 7.0 | 16.0 | 0.00 | 0.00 | 0.00 | 59 | 1000.4 |
| 20260504222504 | 71 | 212 | 6.0 | 15.0 | 0.00 | 0.00 | 0.00 | 59 | 1000.2 |
| 20260504222004 | 71 | 241 | 6.0 | 20.0 | 0.00 | 0.00 | 0.00 | 36 | 1000.3 |
| 20260504221504 | 71 | 237 | 7.0 | 17.0 | 0.00 | 0.00 | 0.00 | 58 | 1000.4 |
| 20260504221004 | 71 | 222 | 8.0 | 17.0 | 0.00 | 0.00 | 0.00 | 58 | 1000.6 |
| 20260504220504 | 71 | 208 | 8.0 | 27.0 | 0.00 | 0.00 | 0.00 | 58 | 1000.8 |
| 20260504220025 | 70 | 217 | 7.0 | 20.0 | 0.00 | 0.00 | 0.00 | 57 | 1000.7 |
| 20260504215525 | 71 | 230 | 6.0 | 15.0 | 0.00 | 0.00 | 0.00 | 56 | 1000.6 |
| 20260504215004 | 71 | 224 | 6.0 | 17.0 | 0.00 | 0.00 | 0.00 | 55 | 1000.6 |
| 20260504214526 | 71 | 247 | 5.0 | 12.0 | 0.00 | 0.00 | 0.00 | 55 | 1000.7 |
| 20260504214004 | 71 | 247 | 6.0 | 12.0 | 0.00 | 0.00 | 0.00 | 53 | 1000.6 |
| 20260504213504 | 71 | 234 | 6.0 | 15.0 | 0.00 | 0.00 | 0.00 | 52 | 1000.6 |
| 20260504213004 | 72 | 229 | 7.0 | 13.0 | 0.00 | 0.00 | 0.00 | 53 | 1000.6 |
| 20260504212526 | 72 | 221 | 7.0 | 21.0 | 0.00 | 0.00 | 0.00 | 51 | 1000.6 |
| 20260504212004 | 72 | 228 | 6.0 | 16.0 | 0.00 | 0.00 | 0.00 | 51 | 1000.6 |
| 20260504211504 | 73 | 243 | 7.0 | 17.0 | 0.00 | 0.00 | 0.00 | 51 | 1000.6 |
| 20260504211025 | 73 | 234 | 7.0 | 19.0 | 0.00 | 0.00 | 0.00 | 51 | 1000.6 |
| 20260504210504 | 73 | 234 | 6.0 | 17.0 | 0.00 | 0.00 | 0.00 | 51 | 1000.5 |
| 20260504210005 | 74 | 249 | 6.0 | 13.0 | 0.00 | 0.00 | 0.00 | 52 | 1000.5 |
| 20260504205504 | 74 | 264 | 8.0 | 20.0 | 0.00 | 0.00 | 0.00 | 52 | 1000.5 |
| 20260504205004 | 74 | 266 | 7.0 | 20.0 | 0.00 | 0.00 | 0.00 | 51 | 1000.6 |
| 20260504204504 | 74 | 261 | 6.0 | 16.0 | 0.00 | 0.00 | 0.00 | 52 | 1000.6 |
| 20260504204025 | 73 | 250 | 7.0 | 21.0 | 0.00 | 0.00 | 0.00 | 51 | 1000.5 |
| 20260504203504 | 73 | 243 | 6.0 | 17.0 | 0.00 | 0.00 | 0.00 | 52 | 1000.6 |
| 20260504203026 | 73 | 234 | 6.0 | 15.0 | 0.00 | 0.00 | 0.00 | 55 | 1000.6 |
| 20260504202504 | 73 | 218 | 7.0 | 13.0 | 0.00 | 0.00 | 0.00 | 55 | 1000.7 |
| 20260504202004 | 72 | 211 | 6.0 | 16.0 | 0.00 | 0.00 | 0.00 | 56 | 1000.5 |
| 20260504201525 | 72 | 206 | 8.0 | 19.0 | 0.00 | 0.00 | 0.00 | 55 | 1000.6 |
| 20260504201004 | 72 | 211 | 9.0 | 24.0 | 0.00 | 0.00 | 0.00 | 56 | 1000.8 |
| 20260504200504 | 72 | 218 | 9.0 | 21.0 | 0.00 | 0.00 | 0.00 | 56 | 1000.8 |
| 20260504200005 | 72 | 227 | 7.0 | 16.0 | 0.00 | 0.00 | 0.00 | 56 | 1001.0 |
| 20260504195525 | 72 | 220 | 9.0 | 17.0 | 0.00 | 0.00 | 0.00 | 57 | 1000.9 |
| 20260504195004 | 72 | 214 | 10.0 | 27.0 | 0.00 | 0.00 | 0.00 | 57 | 1000.9 |
| 20260504194504 | 72 | 214 | 9.0 | 16.0 | 0.00 | 0.00 | 0.00 | 57 | 1001.1 |
| 20260504194004 | 72 | 212 | 10.0 | 21.0 | 0.00 | 0.00 | 0.00 | 58 | 1000.9 |
| 20260504193504 | 72 | 226 | 8.0 | 17.0 | 0.00 | 0.00 | 0.00 | 58 | 1001.0 |
| 20260504193004 | 72 | 225 | 9.0 | 17.0 | 0.00 | 0.00 | 0.00 | 37 | 1001.0 |
| 20260504192504 | 72 | 202 | 10.0 | 29.0 | 0.00 | 0.00 | 0.00 | 58 | 1001.1 |
| 20260504192025 | 72 | 201 | 9.0 | 20.0 | 0.00 | 0.00 | 0.00 | 58 | 1001.2 |
| 20260504191525 | 72 | 199 | 7.0 | 8.0 | 0.00 | 0.00 | 0.00 | 60 | 1001.2 |
| 20260504191004 | 72 | 217 | 7.0 | 20.0 | 0.00 | 0.00 | 0.00 | 60 | 1002.0 |
| 20260504190504 | 72 | 217 | 7.0 | 20.0 | 0.00 | 0.00 | 0.00 | 60 | 1002.0 |
| 20260504190004 | 72 | 217 | 7.0 | 20.0 | 0.00 | 0.00 | 0.00 | 60 | 1002.0 |
| 20260504185504 | 72 | 217 | 7.0 | 20.0 | 0.00 | 0.00 | 0.00 | 60 | 1002.0 |
| 20260504185004 | 72 | 217 | 7.0 | 20.0 | 0.00 | 0.00 | 0.00 | 60 | 1002.0 |
| 20260504184504 | 72 | 217 | 7.0 | 20.0 | 0.00 | 0.00 | 0.00 | 60 | 1002.0 |
| 20260504184025 | 72 | 217 | 7.0 | 20.0 | 0.00 | 0.00 | 0.00 | 60 | 1002.0 |
| 20260504183504 | 72 | 217 | 7.0 | 20.0 | 0.00 | 0.00 | 0.00 | 60 | 1002.0 |
| 20260504183025 | 72 | 217 | 7.0 | 20.0 | 0.00 | 0.00 | 0.00 | 60 | 1002.0 |
| 20260504182504 | 72 | 217 | 7.0 | 20.0 | 0.00 | 0.00 | 0.00 | 60 | 1002.0 |
| 20260504182005 | 72 | 217 | 7.0 | 20.0 | 0.00 | 0.00 | 0.00 | 60 | 1002.0 |
| 20260504181504 | 72 | 217 | 7.0 | 20.0 | 0.00 | 0.00 | 0.00 | 60 | 1002.0 |
| 20260504181004 | 72 | 221 | 7.0 | 20.0 | 0.00 | 0.00 | 0.00 | 60 | 1002.0 |
| 20260504180526 | 72 | 242 | 6.0 | 20.0 | 0.00 | 0.00 | 0.00 | 60 | 1002.0 |
| 20260504180004 | 72 | 227 | 5.0 | 17.0 | 0.00 | 0.00 | 0.00 | 60 | 1002.0 |
| 20260504175504 | 72 | 218 | 6.0 | 15.0 | 0.00 | 0.00 | 0.00 | 60 | 1002.0 |
| 20260504175004 | 72 | 217 | 7.0 | 11.0 | 0.00 | 0.00 | 0.00 | 61 | 1002.0 |
| 20260504174504 | 72 | 229 | 6.0 | 15.0 | 0.00 | 0.00 | 0.00 | 60 | 1002.1 |
| 20260504174025 | 72 | 255 | 6.0 | 17.0 | 0.00 | 0.00 | 0.00 | 60 | 1002.1 |
| 20260504173525 | 72 | 220 | 8.0 | 16.0 | 0.00 | 0.00 | 0.00 | 60 | 1002.2 |
| 20260504173004 | 72 | 211 | 8.0 | 21.0 | 0.00 | 0.00 | 0.00 | 59 | 1002.2 |
| 20260504172504 | 72 | 220 | 7.0 | 19.0 | 0.00 | 0.00 | 0.00 | 58 | 1002.1 |
| 20260504172004 | 72 | 214 | 7.0 | 21.0 | 0.00 | 0.00 | 0.00 | 57 | 1002.1 |
| 20260504171504 | 72 | 208 | 9.0 | 17.0 | 0.00 | 0.00 | 0.00 | 58 | 1002.1 |
| 20260504171004 | 72 | 211 | 8.0 | 23.0 | 0.00 | 0.00 | 0.00 | 57 | 1002.1 |
| 20260504170504 | 72 | 210 | 6.0 | 16.0 | 0.00 | 0.00 | 0.00 | 58 | 1002.4 |
| 20260504151025 | 67 | 250 | 5.0 | 16.0 | 0.00 | 0.00 | 0.00 | 64 | 1003.5 |
| 20260504150504 | 67 | 213 | 5.0 | 13.0 | 0.00 | 0.00 | 0.00 | 66 | 1003.5 |
| 20260504141004 | 63 | 236 | 4.0 | 13.0 | 0.00 | 0.00 | 0.00 | 67 | 1003.9 |
| 20260504140503 | 62 | 228 | 4.0 | 11.0 | 0.00 | 0.00 | 0.00 | 67 | 1003.9 |
| 20260504130504 | 57 | 291 | 4.0 | 12.0 | 0.00 | 0.00 | 0.00 | 72 | 1004.3 |
| 20260504110503 | 47 | 358 | 4.0 | 7.0 | 0.00 | 0.00 | 0.00 | 82 | 1004.5 |